When you browse on this site, cookies collect data to enhance your experience and personalize the content and advertising you see.
Visit our Privacy Policy to learn more. By continuing to use the site, you agree to this use of cookies and data.
  • In Österreich
  • Länderverzeichnis
  • Für 7 Tage
  • Wassertemperatur
  • Wetterkarte
  • News
  • Widgets
  • user-avatar
    Anmelden

    Stündliche Wetter Roquefort-sur-Soulzon

    Heute, 20 August, Dienstag

    Zeit Temperatur Niederschläge Wind Luftdruck Luftfeuchtigkeit
    00:00 +16°C° 0 mm 1 m/S 717 mmHg 72%
    01:00 +16°C° 0.4 mm 1 m/S 717 mmHg 78%
    02:00 +15°C° 0.4 mm 1 m/S 717 mmHg 85%
    03:00 +15°C° 0.4 mm 1 m/S 716 mmHg 91%
    04:00 +14°C° 1.3 mm 1 m/S 716 mmHg 92%
    05:00 +14°C° 1.3 mm 2 m/S 716 mmHg 94%
    06:00 +14°C° 0 mm 1 m/S 717 mmHg 97%
    07:00 +15°C° 1.3 mm 2 m/S 717 mmHg 96%
    08:00 +15°C° 1.3 mm 2 m/S 717 mmHg 96%
    09:00 +15°C° 1.3 mm 2 m/S 717 mmHg 95%
    10:00 +15°C° 1.2 mm 2 m/S 718 mmHg 95%
    11:00 +16°C° 1.2 mm 2 m/S 718 mmHg 94%
    12:00 +16°C° 1.2 mm 2 m/S 719 mmHg 94%
    13:00 +16°C° 0.1 mm 2 m/S 719 mmHg 90%
    14:00 +17°C° 0.1 mm 2 m/S 719 mmHg 86%
    15:00 +18°C° 0.1 mm 3 m/S 719 mmHg 82%
    16:00 +18°C° 0 mm 3 m/S 719 mmHg 79%
    17:00 +18°C° 0 mm 3 m/S 719 mmHg 75%
    18:00 +18°C° 0 mm 3 m/S 719 mmHg 72%
    19:00 +16°C° 0 mm 2 m/S 719 mmHg 77%
    20:00 +15°C° 0 mm 2 m/S 719 mmHg 82%
    21:00 +13°C° 0 mm 2 m/S 719 mmHg 88%
    22:00 +13°C° 0 mm 2 m/S 719 mmHg 88%
    23:00 +12°C° 0 mm 2 m/S 719 mmHg 89%

    Morgen, 21 August, Mittwoch

    Zeit Temperatur Niederschläge Wind Luftdruck Luftfeuchtigkeit
    00:00 +12°C° 0 mm 2 m/S 719 mmHg 90%
    01:00 +10°C° 0 mm 2 m/S 718 mmHg 90%
    02:00 +10°C° 0 mm 2 m/S 718 mmHg 90%
    03:00 +10°C° 0 mm 2 m/S 718 mmHg 91%
    04:00 +10°C° 0 mm 2 m/S 718 mmHg 88%
    05:00 +10°C° 0 mm 2 m/S 718 mmHg 85%
    06:00 +11°C° 0 mm 1 m/S 718 mmHg 83%
    07:00 +14°C° 0 mm 2 m/S 718 mmHg 71%
    08:00 +17°C° 0 mm 2 m/S 718 mmHg 60%
    09:00 +19°C° 0 mm 2 m/S 718 mmHg 48%
    10:00 +23°C° 0 mm 2 m/S 718 mmHg 42%
    11:00 +25°C° 0 mm 2 m/S 719 mmHg 35%
    12:00 +28°C° 0 mm 2 m/S 719 mmHg 28%
    13:00 +28°C° 0 mm 2 m/S 718 mmHg 28%
    14:00 +28°C° 0 mm 2 m/S 718 mmHg 28%
    15:00 +28°C° 0 mm 2 m/S 718 mmHg 27%
    16:00 +26°C° 0 mm 2 m/S 718 mmHg 37%
    17:00 +24°C° 0 mm 2 m/S 718 mmHg 46%
    18:00 +21°C° 0 mm 2 m/S 717 mmHg 55%
    19:00 +20°C° 0 mm 1 m/S 717 mmHg 61%
    20:00 +18°C° 0 mm 1 m/S 717 mmHg 67%
    21:00 +15°C° 0 mm 1 m/S 717 mmHg 73%
    22:00 +15°C° 0 mm 1 m/S 717 mmHg 75%
    23:00 +15°C° 0 mm 1 m/S 717 mmHg 77%

    übermorgen, 22 August, Donnerstag

    Zeit Temperatur Niederschläge Wind Luftdruck Luftfeuchtigkeit
    00:00 +14°C° 0 mm 1 m/S 717 mmHg 79%
    01:00 +14°C° 0 mm 1 m/S 717 mmHg 80%
    02:00 +14°C° 0 mm 1 m/S 717 mmHg 80%
    03:00 +13°C° 0 mm 1 m/S 717 mmHg 81%
    04:00 +14°C° 0 mm 1 m/S 717 mmHg 79%
    05:00 +14°C° 0 mm 1 m/S 717 mmHg 77%
    06:00 +14°C° 0 mm 1 m/S 717 mmHg 75%
    07:00 +18°C° 0 mm 1 m/S 718 mmHg 65%
    08:00 +21°C° 0 mm 1 m/S 718 mmHg 54%
    09:00 +24°C° 0 mm 1 m/S 719 mmHg 44%
    10:00 +26°C° 0 mm 2 m/S 719 mmHg 40%
    11:00 +28°C° 0 mm 2 m/S 719 mmHg 37%
    12:00 +29°C° 0 mm 2 m/S 719 mmHg 33%
    13:00 +29°C° 0 mm 2 m/S 719 mmHg 33%
    14:00 +29°C° 0 mm 3 m/S 718 mmHg 33%
    15:00 +29°C° 0 mm 3 m/S 718 mmHg 33%
    16:00 +27°C° 0 mm 2 m/S 718 mmHg 40%
    17:00 +26°C° 0 mm 2 m/S 718 mmHg 47%
    18:00 +24°C° 0 mm 2 m/S 718 mmHg 54%
    19:00 +22°C° 0 mm 1 m/S 718 mmHg 57%
    20:00 +20°C° 0 mm 1 m/S 718 mmHg 61%
    21:00 +17°C° 0 mm 0 m/S 718 mmHg 64%
    22:00 +18°C° 0 mm 1 m/S 718 mmHg 67%
    23:00 +18°C° 0 mm 1 m/S 718 mmHg 70%

    23 August, Freitag

    Zeit Temperatur Niederschläge Wind Luftdruck Luftfeuchtigkeit
    00:00 +16°C° 0 mm 1 m/S 718 mmHg 72%
    01:00 +16°C° 0 mm 1 m/S 718 mmHg 74%
    02:00 +16°C° 0 mm 1 m/S 717 mmHg 76%
    03:00 +16°C° 0 mm 1 m/S 717 mmHg 78%
    04:00 +16°C° 0 mm 1 m/S 717 mmHg 76%
    05:00 +16°C° 0 mm 1 m/S 717 mmHg 74%
    06:00 +18°C° 0 mm 1 m/S 717 mmHg 73%
    07:00 +21°C° 0 mm 1 m/S 718 mmHg 62%
    08:00 +25°C° 0 mm 1 m/S 718 mmHg 51%
    09:00 +26°C° 0 mm 0 m/S 719 mmHg 40%
    10:00 +30°C° 0 mm 1 m/S 719 mmHg 35%
    11:00 +31°C° 0 mm 1 m/S 719 mmHg 30%
    12:00 +33°C° 0 mm 1 m/S 718 mmHg 25%
    13:00 +33°C° 0 mm 1 m/S 718 mmHg 25%
    14:00 +33°C° 0 mm 1 m/S 718 mmHg 25%
    15:00 +33°C° 0 mm 1 m/S 717 mmHg 24%
    16:00 +30°C° 0 mm 1 m/S 717 mmHg 32%
    17:00 +28°C° 0 mm 1 m/S 717 mmHg 40%
    18:00 +25°C° 0 mm 1 m/S 717 mmHg 48%
    19:00 +24°C° 0 mm 1 m/S 717 mmHg 53%
    20:00 +22°C° 0 mm 1 m/S 717 mmHg 57%
    21:00 +21°C° 0 mm 1 m/S 717 mmHg 61%
    22:00 +20°C° 0 mm 1 m/S 717 mmHg 62%
    23:00 +20°C° 0 mm 1 m/S 717 mmHg 63%

    24 August, Samstag

    Zeit Temperatur Niederschläge Wind Luftdruck Luftfeuchtigkeit
    00:00 +20°C° 0 mm 1 m/S 717 mmHg 65%
    01:00 +19°C° 0 mm 1 m/S 717 mmHg 65%
    02:00 +19°C° 0 mm 1 m/S 716 mmHg 66%
    03:00 +19°C° 0 mm 1 m/S 716 mmHg 67%
    04:00 +19°C° 0 mm 1 m/S 716 mmHg 68%
    05:00 +19°C° 0 mm 1 m/S 716 mmHg 68%
    06:00 +20°C° 0 mm 1 m/S 716 mmHg 68%
    07:00 +23°C° 0 mm 1 m/S 717 mmHg 59%
    08:00 +26°C° 0 mm 2 m/S 717 mmHg 51%
    09:00 +28°C° 0 mm 2 m/S 717 mmHg 42%
    10:00 +30°C° 0 mm 2 m/S 717 mmHg 38%
    11:00 +31°C° 0 mm 3 m/S 717 mmHg 34%
    12:00 +33°C° 0 mm 3 m/S 717 mmHg 31%
    13:00 +33°C° 0 mm 3 m/S 717 mmHg 30%
    14:00 +33°C° 0 mm 3 m/S 716 mmHg 30%
    15:00 +33°C° 0 mm 3 m/S 716 mmHg 30%
    16:00 +30°C° 0 mm 2 m/S 716 mmHg 37%
    17:00 +28°C° 0 mm 2 m/S 715 mmHg 44%
    18:00 +26°C° 0 mm 2 m/S 715 mmHg 52%
    19:00 +24°C° 0 mm 1 m/S 715 mmHg 55%
    20:00 +22°C° 0 mm 1 m/S 715 mmHg 59%
    21:00 +21°C° 0 mm 1 m/S 715 mmHg 63%
    22:00 +20°C° 0 mm 1 m/S 715 mmHg 62%
    23:00 +20°C° 0 mm 1 m/S 715 mmHg 61%

    25 August, Sonntag

    Zeit Temperatur Niederschläge Wind Luftdruck Luftfeuchtigkeit
    00:00 +20°C° 0 mm 1 m/S 715 mmHg 60%
    01:00 +20°C° 0 mm 1 m/S 715 mmHg 60%
    02:00 +19°C° 0 mm 1 m/S 715 mmHg 59%
    03:00 +19°C° 0 mm 1 m/S 715 mmHg 59%
    04:00 +19°C° 0 mm 1 m/S 715 mmHg 59%
    05:00 +20°C° 0 mm 1 m/S 715 mmHg 58%
    06:00 +20°C° 0 mm 1 m/S 715 mmHg 58%
    07:00 +23°C° 0 mm 1 m/S 715 mmHg 50%
    08:00 +26°C° 0 mm 1 m/S 716 mmHg 41%
    09:00 +29°C° 0 mm 1 m/S 717 mmHg 33%
    10:00 +30°C° 0 mm 1 m/S 716 mmHg 31%
    11:00 +31°C° 0 mm 2 m/S 716 mmHg 28%
    12:00 +32°C° 0 mm 2 m/S 716 mmHg 26%
    13:00 +32°C° 0 mm 2 m/S 716 mmHg 25%
    14:00 +32°C° 0 mm 2 m/S 716 mmHg 25%
    15:00 +32°C° 0 mm 2 m/S 715 mmHg 25%
    16:00 +30°C° 0 mm 2 m/S 715 mmHg 33%
    17:00 +28°C° 0 mm 2 m/S 715 mmHg 42%
    18:00 +25°C° 0 mm 1 m/S 715 mmHg 50%
    19:00 +24°C° 0 mm 1 m/S 715 mmHg 52%
    20:00 +23°C° 0 mm 1 m/S 715 mmHg 53%
    21:00 +21°C° 0 mm 1 m/S 715 mmHg 55%
    22:00 +21°C° 0 mm 1 m/S 715 mmHg 53%
    23:00 +21°C° 0 mm 1 m/S 715 mmHg 51%
    Mehr zeigen